Tracking 29093 objects as of 15-Jul-2024
HD Live streaming from Space Station
objects crossing your sky now

DELTA 1 DEB

Track DELTA 1 DEB now!
10-day predictions


NORAD ID: 28266
Int'l Code: 1968-055L
Perigee: 819.0 km
Apogee: 3,781.7 km
Inclination: 120.7 °
Period: 133.9 minutes
Semi major axis: 8671 km
RCS: 0.003 m2 (small)
Launch date: July 4, 1968
Source: United States (US)
Launch site: AIR FORCE WESTERN TEST RANGE (AFWTR)

Note: This is SATELLITE DEBRIS
Your satellite tracking list
Your tracking list is empty




NASA's NSSDC Master Catalog

Two Line Element Set (TLE):
1 28266U 68055L   24196.64811005  .00008156  00000-0  24762-1 0  9997
2 28266 120.7457 105.1546 1708319 113.7951 265.1009 10.75162471808441
Source of the keplerian elements: AFSPC